Year,Month,Day,Hour,Minute,Value (Times are PST for temperature in C)
2009,06,09,00,00,14.90
2009,06,09,00,05,14.80
2009,06,09,00,06,14.80
2009,06,09,00,07,14.70
2009,06,09,00,08,14.70
2009,06,09,00,09,14.70
2009,06,09,00,10,14.70
2009,06,09,00,11,14.70
2009,06,09,00,12,14.70
2009,06,09,00,13,14.70
2009,06,09,00,14,14.70
2009,06,09,00,15,14.70
2009,06,09,00,16,14.70
2009,06,09,00,17,14.70
2009,06,09,00,18,14.70
2009,06,09,00,19,14.70
2009,06,09,00,20,14.80
2009,06,09,00,21,14.70
2009,06,09,00,22,14.70
2009,06,09,00,23,14.70
2009,06,09,00,24,14.70
2009,06,09,00,25,14.70
2009,06,09,00,26,14.70
2009,06,09,00,27,14.70
2009,06,09,00,28,14.70
2009,06,09,00,29,14.70
2009,06,09,00,30,14.70
2009,06,09,00,31,14.70
2009,06,09,00,32,14.70
2009,06,09,00,33,14.70
2009,06,09,00,34,14.70
2009,06,09,00,35,14.70
2009,06,09,00,36,14.70
2009,06,09,00,37,14.70
2009,06,09,00,38,14.70
2009,06,09,00,39,14.70
2009,06,09,00,40,14.80
2009,06,09,00,41,14.80
2009,06,09,00,42,14.80
2009,06,09,00,43,14.80
2009,06,09,00,44,14.80
2009,06,09,00,45,14.80
2009,06,09,00,46,14.80
2009,06,09,00,47,14.80
2009,06,09,00,48,14.80
2009,06,09,00,49,14.80
2009,06,09,00,50,14.80
2009,06,09,00,51,14.70
2009,06,09,00,52,14.70
2009,06,09,00,53,14.70
2009,06,09,00,54,14.70
2009,06,09,00,55,14.70
2009,06,09,00,56,14.70
2009,06,09,00,57,14.70
2009,06,09,00,58,14.60
2009,06,09,00,59,14.60
2009,06,09,01,00,14.60
2009,06,09,01,01,14.60
2009,06,09,01,02,14.50
2009,06,09,01,03,14.50
2009,06,09,01,04,14.40
2009,06,09,01,05,14.40
2009,06,09,01,06,14.40
2009,06,09,01,07,14.40
2009,06,09,01,08,14.40
2009,06,09,01,09,14.40
2009,06,09,01,10,14.40
2009,06,09,01,11,14.30
2009,06,09,01,12,14.30
2009,06,09,01,13,14.30
2009,06,09,01,14,14.30
2009,06,09,01,15,14.30
2009,06,09,01,16,14.30
2009,06,09,01,17,14.30
2009,06,09,01,18,14.30
2009,06,09,01,19,14.30
2009,06,09,01,20,14.30
2009,06,09,01,21,14.30
2009,06,09,01,22,14.30
2009,06,09,01,23,14.30
2009,06,09,01,24,14.30
2009,06,09,01,25,14.30
2009,06,09,01,26,14.30
2009,06,09,01,27,14.30
2009,06,09,01,28,14.30
2009,06,09,01,29,14.30
2009,06,09,01,30,14.30
2009,06,09,01,31,14.30
2009,06,09,01,32,14.30
2009,06,09,01,33,14.30
2009,06,09,01,34,14.30
2009,06,09,01,35,14.30
2009,06,09,01,36,14.30
2009,06,09,01,37,14.30
2009,06,09,01,38,14.30
2009,06,09,01,39,14.30
2009,06,09,01,40,14.30
2009,06,09,01,41,14.30
2009,06,09,01,42,14.30
2009,06,09,01,43,14.20
2009,06,09,01,44,14.20
2009,06,09,01,45,14.20
2009,06,09,01,46,14.20
2009,06,09,01,47,14.10
2009,06,09,01,48,14.10
2009,06,09,01,49,14.10
2009,06,09,01,50,14.10
2009,06,09,01,51,14.10
2009,06,09,01,52,14.10
2009,06,09,01,53,14.10
2009,06,09,01,54,14.10
2009,06,09,01,55,14.10
2009,06,09,01,56,14.10
2009,06,09,01,57,14.10
2009,06,09,01,58,14.10
2009,06,09,01,59,14.10
2009,06,09,02,00,14.10
2009,06,09,02,01,14.10
2009,06,09,02,02,14.00
2009,06,09,02,03,14.00
2009,06,09,02,04,13.90
2009,06,09,02,05,13.90
2009,06,09,02,06,13.90
2009,06,09,02,07,13.90
2009,06,09,02,08,13.90
2009,06,09,02,09,13.90
2009,06,09,02,10,13.90
2009,06,09,02,11,13.80
2009,06,09,02,12,13.80
2009,06,09,02,13,13.80
2009,06,09,02,14,13.80
2009,06,09,02,15,13.80
2009,06,09,02,16,13.90
2009,06,09,02,17,13.90
2009,06,09,02,18,13.90
2009,06,09,02,19,13.90
2009,06,09,02,20,13.90
2009,06,09,02,21,14.00
2009,06,09,02,22,14.00
2009,06,09,02,23,14.00
2009,06,09,02,24,14.00
2009,06,09,02,25,14.10
2009,06,09,02,26,14.10
2009,06,09,02,27,14.10
2009,06,09,02,28,14.10
2009,06,09,02,29,14.10
2009,06,09,02,30,14.10
2009,06,09,02,31,14.10
2009,06,09,02,32,14.00
2009,06,09,02,33,13.90
2009,06,09,02,34,13.90
2009,06,09,02,35,13.90
2009,06,09,02,36,13.80
2009,06,09,02,37,13.80
2009,06,09,02,38,13.70
2009,06,09,02,39,13.70
2009,06,09,02,40,13.70
2009,06,09,02,41,13.60
2009,06,09,02,42,13.60
2009,06,09,02,43,13.60
2009,06,09,02,44,13.60
2009,06,09,02,45,13.50
2009,06,09,02,46,13.50
2009,06,09,02,47,13.50
2009,06,09,02,48,13.40
2009,06,09,02,49,13.40
2009,06,09,02,50,13.40
2009,06,09,02,51,13.40
2009,06,09,02,52,13.30
2009,06,09,02,53,13.30
2009,06,09,02,54,13.30
2009,06,09,02,55,13.30
2009,06,09,02,56,13.30
2009,06,09,02,57,13.30
2009,06,09,02,58,13.20
2009,06,09,02,59,13.20
2009,06,09,03,00,13.20
2009,06,09,03,01,13.20
2009,06,09,03,02,13.20
2009,06,09,03,03,13.20
2009,06,09,03,04,13.20
2009,06,09,03,05,13.20
2009,06,09,03,06,13.20
2009,06,09,03,07,13.20
2009,06,09,03,08,13.20
2009,06,09,03,09,13.20
2009,06,09,03,10,13.10
2009,06,09,03,11,13.10
2009,06,09,03,12,13.10
2009,06,09,03,13,13.10
2009,06,09,03,14,13.10
2009,06,09,03,15,13.10
2009,06,09,03,16,13.10
2009,06,09,03,17,13.10
2009,06,09,03,18,13.10
2009,06,09,03,19,13.10
2009,06,09,03,20,13.20
2009,06,09,03,21,13.20
2009,06,09,03,22,13.20
2009,06,09,03,23,13.20
2009,06,09,03,24,13.20
2009,06,09,03,25,13.20
2009,06,09,03,26,13.20
2009,06,09,03,27,13.20
2009,06,09,03,28,13.10
2009,06,09,03,29,13.10
2009,06,09,03,30,13.10
2009,06,09,03,31,13.10
2009,06,09,03,32,13.10
2009,06,09,03,33,13.10
2009,06,09,03,34,13.10
2009,06,09,03,35,13.00
2009,06,09,03,36,13.00
2009,06,09,03,37,13.00
2009,06,09,03,38,12.90
2009,06,09,03,39,12.90
2009,06,09,03,40,12.90
2009,06,09,03,41,12.90
2009,06,09,03,42,12.80
2009,06,09,03,43,12.80
2009,06,09,03,44,12.80
2009,06,09,03,45,12.80
2009,06,09,03,46,12.70
2009,06,09,03,47,12.70
2009,06,09,03,48,12.70
2009,06,09,03,49,12.70
2009,06,09,03,50,12.70
2009,06,09,03,51,12.70
2009,06,09,03,52,12.70
2009,06,09,03,53,12.70
2009,06,09,03,54,12.70
2009,06,09,03,55,12.70
2009,06,09,03,56,12.70
2009,06,09,03,57,12.70
2009,06,09,03,58,12.70
2009,06,09,03,59,12.70
2009,06,09,04,00,12.70
2009,06,09,04,01,12.70
2009,06,09,04,02,12.70
2009,06,09,04,03,12.70
2009,06,09,04,04,12.70
2009,06,09,04,05,12.60
2009,06,09,04,06,12.60
2009,06,09,04,07,12.60
2009,06,09,04,08,12.60
2009,06,09,04,09,12.60
2009,06,09,04,10,12.60
2009,06,09,04,11,12.60
2009,06,09,04,12,12.60
2009,06,09,04,13,12.60
2009,06,09,04,14,12.60
2009,06,09,04,15,12.60
2009,06,09,04,16,12.60
2009,06,09,04,17,12.60
2009,06,09,04,18,12.60
2009,06,09,04,19,12.50
2009,06,09,04,20,12.50
2009,06,09,04,21,12.50
2009,06,09,04,22,12.50
2009,06,09,04,23,12.50
2009,06,09,04,24,12.40
2009,06,09,04,25,12.40
2009,06,09,04,26,12.40
2009,06,09,04,27,12.40
2009,06,09,04,28,12.40
2009,06,09,04,29,12.30
2009,06,09,04,30,12.30
2009,06,09,04,31,12.30
2009,06,09,04,32,12.30
2009,06,09,04,33,12.30
2009,06,09,04,34,12.30
2009,06,09,04,35,12.30
2009,06,09,04,36,12.20
2009,06,09,04,37,12.20
2009,06,09,04,38,12.20
2009,06,09,04,39,12.20
2009,06,09,04,40,12.20
2009,06,09,04,41,12.20
2009,06,09,04,42,12.20
2009,06,09,04,43,12.30
2009,06,09,04,44,12.30
2009,06,09,04,45,12.30
2009,06,09,04,46,12.30
2009,06,09,04,47,12.30
2009,06,09,04,48,12.30
2009,06,09,04,49,12.30
2009,06,09,04,50,12.30
2009,06,09,04,51,12.40
2009,06,09,04,52,12.40
2009,06,09,04,53,12.40
2009,06,09,04,54,12.40
2009,06,09,04,55,12.40
2009,06,09,04,56,12.40
2009,06,09,04,57,12.40
2009,06,09,04,58,12.30
2009,06,09,04,59,12.30
2009,06,09,05,00,12.30
2009,06,09,05,01,12.30
2009,06,09,05,02,12.30
2009,06,09,05,03,12.30
2009,06,09,05,04,12.30
2009,06,09,05,05,12.30
2009,06,09,05,06,12.30
2009,06,09,05,07,12.30
2009,06,09,05,08,12.20
2009,06,09,05,09,12.20
2009,06,09,05,10,12.20
2009,06,09,05,11,12.20
2009,06,09,05,12,12.20
2009,06,09,05,13,12.20
2009,06,09,05,14,12.20
2009,06,09,05,15,12.20
2009,06,09,05,16,12.20
2009,06,09,05,17,12.10
2009,06,09,05,18,12.10
2009,06,09,05,19,12.10
2009,06,09,05,20,12.10
2009,06,09,05,21,12.10
2009,06,09,05,22,12.10
2009,06,09,05,23,12.00
2009,06,09,05,24,12.00
2009,06,09,05,25,12.00
2009,06,09,05,26,12.00
2009,06,09,05,27,12.00
2009,06,09,05,28,12.00
2009,06,09,05,29,12.00
2009,06,09,05,30,12.00
2009,06,09,05,31,12.00
2009,06,09,05,32,12.10
2009,06,09,05,33,12.10
2009,06,09,05,34,12.10
2009,06,09,05,35,12.10
2009,06,09,05,36,12.10
2009,06,09,05,37,12.10
2009,06,09,05,38,12.10
2009,06,09,05,39,12.10
2009,06,09,05,40,12.10
2009,06,09,05,41,12.10
2009,06,09,05,42,12.10
2009,06,09,05,43,12.10
2009,06,09,05,44,12.10
2009,06,09,05,45,12.10
2009,06,09,05,46,12.10
2009,06,09,05,47,12.10
2009,06,09,05,48,12.10
2009,06,09,05,49,12.10
2009,06,09,05,50,12.10
2009,06,09,05,51,12.10
2009,06,09,05,52,12.20
2009,06,09,05,53,12.20
2009,06,09,05,54,12.20
2009,06,09,05,55,12.20
2009,06,09,05,56,12.20
2009,06,09,05,57,12.30
2009,06,09,05,58,12.30
2009,06,09,05,59,12.30
2009,06,09,06,00,12.30
2009,06,09,06,01,12.40
2009,06,09,06,02,12.40
2009,06,09,06,03,12.40
2009,06,09,06,04,12.40
2009,06,09,06,05,12.40
2009,06,09,06,06,12.40
2009,06,09,06,07,12.50
2009,06,09,06,08,12.50
2009,06,09,06,09,12.50
2009,06,09,06,10,12.50
2009,06,09,06,11,12.60
2009,06,09,06,12,12.60
2009,06,09,06,13,12.60
2009,06,09,06,14,12.70
2009,06,09,06,15,12.70
2009,06,09,06,16,12.70
2009,06,09,06,17,12.70
2009,06,09,06,18,12.70
2009,06,09,06,19,12.80
2009,06,09,06,20,12.80
2009,06,09,06,21,12.80
2009,06,09,06,22,12.80
2009,06,09,06,23,12.80
2009,06,09,06,24,12.80
2009,06,09,06,25,12.90
2009,06,09,06,26,12.90
2009,06,09,06,27,12.90
2009,06,09,06,28,12.90
2009,06,09,06,29,13.00
2009,06,09,06,30,13.00
2009,06,09,06,31,13.00
2009,06,09,06,32,13.10
2009,06,09,06,33,13.10
2009,06,09,06,34,13.10
2009,06,09,06,35,13.10
2009,06,09,06,36,13.10
2009,06,09,06,37,13.20
2009,06,09,06,38,13.20
2009,06,09,06,39,13.20
2009,06,09,06,40,13.30
2009,06,09,06,41,13.30
2009,06,09,06,42,13.30
2009,06,09,06,43,13.40
2009,06,09,06,44,13.40
2009,06,09,06,45,13.50
2009,06,09,06,46,13.60
2009,06,09,06,47,13.60
2009,06,09,06,48,13.60
2009,06,09,06,49,13.70
2009,06,09,06,50,13.70
2009,06,09,06,51,13.80
2009,06,09,06,52,13.80
2009,06,09,06,53,13.90
2009,06,09,06,54,13.90
2009,06,09,06,55,14.00
2009,06,09,06,56,14.10
2009,06,09,06,57,14.10
2009,06,09,06,58,14.20
2009,06,09,06,59,14.30
2009,06,09,07,00,14.40
2009,06,09,07,01,14.40
2009,06,09,07,02,14.50
2009,06,09,07,03,14.60
2009,06,09,07,04,14.70
2009,06,09,07,05,14.70
2009,06,09,07,06,14.80
2009,06,09,07,07,15.00
2009,06,09,07,08,15.00
2009,06,09,07,09,15.00
2009,06,09,07,10,15.00
2009,06,09,07,11,15.00
2009,06,09,07,12,15.00
2009,06,09,07,13,15.20
2009,06,09,07,14,15.30
2009,06,09,07,15,15.30
2009,06,09,07,16,15.40
2009,06,09,07,17,15.40
2009,06,09,07,18,15.50
2009,06,09,07,19,15.50
2009,06,09,07,20,15.60
2009,06,09,07,21,15.60
2009,06,09,07,22,15.70
2009,06,09,07,23,15.70
2009,06,09,07,24,15.70
2009,06,09,07,25,15.80
2009,06,09,07,26,15.80
2009,06,09,07,27,15.80
2009,06,09,07,28,15.80
2009,06,09,07,29,15.90
2009,06,09,07,30,15.90
2009,06,09,07,31,15.90
2009,06,09,07,32,15.90
2009,06,09,07,33,15.90
2009,06,09,07,34,16.00
2009,06,09,07,35,16.00
2009,06,09,07,36,16.00
2009,06,09,07,37,16.00
2009,06,09,07,38,16.10
2009,06,09,07,39,16.10
2009,06,09,07,40,16.10
2009,06,09,07,41,16.10
2009,06,09,07,42,16.10
2009,06,09,07,43,16.10
2009,06,09,07,44,16.10
2009,06,09,07,45,16.10
2009,06,09,07,46,16.10
2009,06,09,07,47,16.10
2009,06,09,07,48,16.10
2009,06,09,07,49,16.10
2009,06,09,07,50,16.20
2009,06,09,07,51,16.20
2009,06,09,07,52,16.20
2009,06,09,07,53,16.30
2009,06,09,07,54,16.30
2009,06,09,07,55,16.30
2009,06,09,07,56,16.40
2009,06,09,07,57,16.40
2009,06,09,07,58,16.40
2009,06,09,07,59,16.40
2009,06,09,08,00,16.30
2009,06,09,08,01,16.30
2009,06,09,08,02,16.30
2009,06,09,08,03,16.30
2009,06,09,08,04,16.30
2009,06,09,08,05,16.30
2009,06,09,08,06,16.30
2009,06,09,08,07,16.30
2009,06,09,08,08,16.30
2009,06,09,08,09,16.30
2009,06,09,08,10,16.30
2009,06,09,08,11,16.30
2009,06,09,08,12,16.20
2009,06,09,08,13,16.20
2009,06,09,08,14,16.20
2009,06,09,08,15,16.20
2009,06,09,08,16,16.20
2009,06,09,08,17,16.20
2009,06,09,08,18,16.10
2009,06,09,08,19,16.20
2009,06,09,08,20,16.20
2009,06,09,08,21,16.20
2009,06,09,08,22,16.20
2009,06,09,08,23,16.30
2009,06,09,08,24,16.40
2009,06,09,08,25,16.40
2009,06,09,08,26,16.50
2009,06,09,08,27,16.50
2009,06,09,08,28,16.50
2009,06,09,08,29,16.60
2009,06,09,08,30,16.60
2009,06,09,08,31,16.60
2009,06,09,08,32,16.60
2009,06,09,08,33,16.60
2009,06,09,08,34,16.60
2009,06,09,08,35,16.60
2009,06,09,08,36,16.60
2009,06,09,08,37,16.60
2009,06,09,08,38,16.50
2009,06,09,08,39,16.50
2009,06,09,08,40,16.50
2009,06,09,08,41,16.40
2009,06,09,08,42,16.40
2009,06,09,08,43,16.40
2009,06,09,08,44,16.40
2009,06,09,08,45,16.30
2009,06,09,08,46,16.30
2009,06,09,08,47,16.30
2009,06,09,08,48,16.30
2009,06,09,08,49,16.30
2009,06,09,08,50,16.30
2009,06,09,08,51,16.30
2009,06,09,08,52,16.30
2009,06,09,08,53,16.30
2009,06,09,08,54,16.30
2009,06,09,08,55,16.30
2009,06,09,08,56,16.30
2009,06,09,08,57,16.40
2009,06,09,08,58,16.40
2009,06,09,08,59,16.40
2009,06,09,09,00,16.40
2009,06,09,09,01,16.40
2009,06,09,09,02,16.50
2009,06,09,09,03,16.50
2009,06,09,09,04,16.50
2009,06,09,09,05,16.60
2009,06,09,09,06,16.60
2009,06,09,09,07,16.60
2009,06,09,09,08,16.60
2009,06,09,09,09,16.70
2009,06,09,09,10,16.80
2009,06,09,09,11,16.80
2009,06,09,09,12,16.80
2009,06,09,09,13,16.80
2009,06,09,09,14,16.80
2009,06,09,09,15,16.80
2009,06,09,09,16,16.80
2009,06,09,09,17,16.80
2009,06,09,09,18,16.80
2009,06,09,09,19,16.70
2009,06,09,09,20,16.70
2009,06,09,09,21,16.80
2009,06,09,09,22,16.80
2009,06,09,09,23,16.80
2009,06,09,09,24,16.70
2009,06,09,09,25,16.70
2009,06,09,09,26,16.70
2009,06,09,09,27,16.60
2009,06,09,09,28,16.60
2009,06,09,09,29,16.60
2009,06,09,09,30,16.60
2009,06,09,09,31,16.70
2009,06,09,09,32,16.70
2009,06,09,09,33,16.70
2009,06,09,09,34,16.70
2009,06,09,09,35,16.70
2009,06,09,09,36,16.70
2009,06,09,09,37,16.70
2009,06,09,09,38,16.80
2009,06,09,09,39,16.80
2009,06,09,09,40,16.80
2009,06,09,09,41,16.90
2009,06,09,09,42,17.00
2009,06,09,09,43,17.00
2009,06,09,09,44,17.10
2009,06,09,09,45,17.10
2009,06,09,09,46,17.20
2009,06,09,09,47,17.20
2009,06,09,09,48,17.20
2009,06,09,09,49,17.10
2009,06,09,09,50,17.10
2009,06,09,09,51,17.10
2009,06,09,09,52,17.10
2009,06,09,09,53,17.20
2009,06,09,09,54,17.20
2009,06,09,09,55,17.20
2009,06,09,09,56,17.30
2009,06,09,09,57,17.30
2009,06,09,09,58,17.40
2009,06,09,09,59,17.40
2009,06,09,10,00,17.40
2009,06,09,10,01,17.40
2009,06,09,10,02,17.30
2009,06,09,10,03,17.30
2009,06,09,10,04,17.30
2009,06,09,10,05,17.20
2009,06,09,10,06,17.20
2009,06,09,10,07,17.20
2009,06,09,10,08,17.20
2009,06,09,10,09,17.30
2009,06,09,10,10,17.30
2009,06,09,10,11,17.30
2009,06,09,10,12,17.20
2009,06,09,10,13,17.30
2009,06,09,10,14,17.30
2009,06,09,10,15,17.30
2009,06,09,10,16,17.30
2009,06,09,10,17,17.30
2009,06,09,10,18,17.30
2009,06,09,10,19,17.40
2009,06,09,10,20,17.40
2009,06,09,10,21,17.40
2009,06,09,10,22,17.40
2009,06,09,10,23,17.40
2009,06,09,10,24,17.50
2009,06,09,10,25,17.60
2009,06,09,10,26,17.70
2009,06,09,10,27,17.80
2009,06,09,10,28,17.90
2009,06,09,10,29,17.90
2009,06,09,10,30,17.80
2009,06,09,10,31,17.80
2009,06,09,10,32,17.80
2009,06,09,10,33,17.70
2009,06,09,10,34,17.70
2009,06,09,10,35,17.70
2009,06,09,10,36,17.70
2009,06,09,10,37,17.70
2009,06,09,10,38,17.60
2009,06,09,10,39,17.70
2009,06,09,10,40,17.70
2009,06,09,10,41,17.70
2009,06,09,10,42,17.70
2009,06,09,10,43,17.70
2009,06,09,10,44,17.70
2009,06,09,10,45,17.70
2009,06,09,10,46,17.60
2009,06,09,10,47,17.70
2009,06,09,10,48,17.70
2009,06,09,10,49,17.80
2009,06,09,10,50,17.90
2009,06,09,10,51,17.90
2009,06,09,10,52,17.90
2009,06,09,10,53,18.00
2009,06,09,10,54,18.00
2009,06,09,10,55,18.10
2009,06,09,10,56,18.10
2009,06,09,10,57,18.20
2009,06,09,10,58,18.20
2009,06,09,10,59,18.20
2009,06,09,11,00,18.30
2009,06,09,11,01,18.30
2009,06,09,11,02,18.30
2009,06,09,11,03,18.30
2009,06,09,11,04,18.40
2009,06,09,11,05,18.40
2009,06,09,11,06,18.50
2009,06,09,11,07,18.50
2009,06,09,11,08,18.60
2009,06,09,11,09,18.60
2009,06,09,11,10,18.60
2009,06,09,11,11,18.70
2009,06,09,11,12,18.70
2009,06,09,11,13,18.80
2009,06,09,11,14,18.90
2009,06,09,11,15,18.90
2009,06,09,11,16,18.90
2009,06,09,11,17,19.00
2009,06,09,11,18,19.00
2009,06,09,11,19,19.10
2009,06,09,11,20,19.10
2009,06,09,11,21,19.10
2009,06,09,11,22,19.00
2009,06,09,11,23,19.00
2009,06,09,11,24,19.00
2009,06,09,11,25,18.90
2009,06,09,11,26,18.90
2009,06,09,11,27,18.80
2009,06,09,11,28,18.80
2009,06,09,11,29,18.80
2009,06,09,11,30,18.80
2009,06,09,11,31,18.90
2009,06,09,11,32,19.00
2009,06,09,11,33,19.10
2009,06,09,11,34,19.30
2009,06,09,11,35,19.40
2009,06,09,11,36,19.40
2009,06,09,11,37,19.50
2009,06,09,11,38,19.50
2009,06,09,11,39,19.50
2009,06,09,11,40,19.40
2009,06,09,11,41,19.50
2009,06,09,11,42,19.40
2009,06,09,11,43,19.50
2009,06,09,11,44,19.50
2009,06,09,11,45,19.60
2009,06,09,11,46,19.70
2009,06,09,11,47,19.80
2009,06,09,11,48,19.90
2009,06,09,11,49,20.00
2009,06,09,11,50,20.00
2009,06,09,11,51,20.10
2009,06,09,11,52,20.20
2009,06,09,11,53,20.30
2009,06,09,11,54,20.30
2009,06,09,11,55,20.30
2009,06,09,11,56,20.30
2009,06,09,11,57,20.30
2009,06,09,11,58,20.40
2009,06,09,11,59,20.20
2009,06,09,12,00,20.10
2009,06,09,12,01,20.00
2009,06,09,12,02,19.90
2009,06,09,12,03,19.80
2009,06,09,12,04,19.80
2009,06,09,12,05,19.70
2009,06,09,12,06,19.70
2009,06,09,12,07,19.70
2009,06,09,12,08,19.80
2009,06,09,12,09,19.80
2009,06,09,12,10,19.90
2009,06,09,12,11,19.80
2009,06,09,12,12,19.80
2009,06,09,12,13,19.80
2009,06,09,12,14,19.80
2009,06,09,12,15,19.90
2009,06,09,12,16,20.00
2009,06,09,12,17,20.00
2009,06,09,12,18,20.00
2009,06,09,12,19,20.00
2009,06,09,12,20,19.90
2009,06,09,12,21,19.80
2009,06,09,12,22,19.70
2009,06,09,12,23,19.60
2009,06,09,12,24,19.50
2009,06,09,12,25,19.40
2009,06,09,12,26,19.40
2009,06,09,12,27,19.40
2009,06,09,12,28,19.40
2009,06,09,12,29,19.60
2009,06,09,12,30,19.70
2009,06,09,12,31,19.90
2009,06,09,12,32,19.90
2009,06,09,12,33,20.00
2009,06,09,12,34,20.00
2009,06,09,12,35,20.00
2009,06,09,12,36,19.90
2009,06,09,12,37,19.90
2009,06,09,12,38,19.90
2009,06,09,12,39,19.90
2009,06,09,12,40,19.90
2009,06,09,12,41,19.90
2009,06,09,12,42,19.90
2009,06,09,12,43,20.00
2009,06,09,12,44,19.80
2009,06,09,12,45,19.70
2009,06,09,12,46,19.60
2009,06,09,12,47,19.40
2009,06,09,12,48,19.40
2009,06,09,12,49,19.40
2009,06,09,12,50,19.50
2009,06,09,12,51,19.60
2009,06,09,12,52,19.70
2009,06,09,12,53,19.80
2009,06,09,12,54,19.70
2009,06,09,12,55,19.70
2009,06,09,12,56,19.70
2009,06,09,12,57,19.70
2009,06,09,12,58,19.80
2009,06,09,12,59,19.90
2009,06,09,13,00,19.90
2009,06,09,13,01,19.80
2009,06,09,13,02,19.80
2009,06,09,13,03,19.80
2009,06,09,13,04,19.80
2009,06,09,13,05,19.70
2009,06,09,13,06,19.80
2009,06,09,13,07,19.90
2009,06,09,13,08,19.90
2009,06,09,13,09,19.80
2009,06,09,13,10,19.90
2009,06,09,13,11,20.00
2009,06,09,13,12,20.20
2009,06,09,13,13,20.20
2009,06,09,13,14,20.30
2009,06,09,13,15,20.20
2009,06,09,13,16,20.10
2009,06,09,13,17,20.00
2009,06,09,13,18,20.10
2009,06,09,13,19,20.10
2009,06,09,13,20,20.20
2009,06,09,13,21,20.00
2009,06,09,13,22,19.90
2009,06,09,13,23,19.70
2009,06,09,13,24,19.70
2009,06,09,13,25,19.60
2009,06,09,13,26,19.60
2009,06,09,13,27,19.60
2009,06,09,13,28,19.60
2009,06,09,13,29,19.60
2009,06,09,13,30,19.60
2009,06,09,13,31,19.70
2009,06,09,13,32,19.80
2009,06,09,13,33,19.80
2009,06,09,13,34,19.80
2009,06,09,13,35,19.60
2009,06,09,13,36,19.40
2009,06,09,13,37,19.30
2009,06,09,13,38,19.30
2009,06,09,13,39,19.40
2009,06,09,13,40,19.50
2009,06,09,13,41,19.50
2009,06,09,13,42,19.70
2009,06,09,13,43,19.80
2009,06,09,13,44,19.80
2009,06,09,13,45,19.80
2009,06,09,13,46,19.80
2009,06,09,13,47,19.90
2009,06,09,13,48,19.90
2009,06,09,13,49,19.90
2009,06,09,13,50,19.90
2009,06,09,13,51,19.90
2009,06,09,13,52,19.90
2009,06,09,13,53,19.90
2009,06,09,13,54,19.90
2009,06,09,13,55,19.80
2009,06,09,13,56,19.80
2009,06,09,13,57,19.80
2009,06,09,13,58,19.80
2009,06,09,13,59,19.70
2009,06,09,14,00,19.60
2009,06,09,14,01,19.50
2009,06,09,14,02,19.40
2009,06,09,14,03,19.40
2009,06,09,14,04,19.50
2009,06,09,14,05,19.60
2009,06,09,14,06,19.80
2009,06,09,14,07,19.90
2009,06,09,14,08,20.00
2009,06,09,14,09,20.10
2009,06,09,14,10,20.20
2009,06,09,14,11,20.30
2009,06,09,14,12,20.40
2009,06,09,14,13,20.30
2009,06,09,14,14,20.20
2009,06,09,14,15,20.20
2009,06,09,14,16,20.20
2009,06,09,14,17,20.10
2009,06,09,14,18,20.10
2009,06,09,14,19,20.00
2009,06,09,14,20,20.00
2009,06,09,14,21,19.90
2009,06,09,14,22,19.90
2009,06,09,14,23,20.00
2009,06,09,14,24,20.00
2009,06,09,14,25,19.90
2009,06,09,14,26,20.00
2009,06,09,14,27,20.20
2009,06,09,14,28,20.20
2009,06,09,14,29,20.30
2009,06,09,14,30,20.30
2009,06,09,14,31,20.30
2009,06,09,14,32,20.30
2009,06,09,14,33,20.30
2009,06,09,14,34,20.30
2009,06,09,14,35,20.30
2009,06,09,14,36,20.40
2009,06,09,14,37,20.30
2009,06,09,14,38,20.20
2009,06,09,14,39,20.10
2009,06,09,14,40,20.00
2009,06,09,14,41,20.10
2009,06,09,14,42,20.20
2009,06,09,14,43,20.30
2009,06,09,14,44,20.40
2009,06,09,14,45,20.50
2009,06,09,14,46,20.50
2009,06,09,14,47,20.60
2009,06,09,14,48,20.60
2009,06,09,14,49,20.50
2009,06,09,14,50,20.50
2009,06,09,14,51,20.50
2009,06,09,14,52,20.40
2009,06,09,14,53,20.40
2009,06,09,14,54,20.30
2009,06,09,14,55,20.20
2009,06,09,14,56,20.20
2009,06,09,14,57,20.20
2009,06,09,14,58,20.20
2009,06,09,14,59,20.10
2009,06,09,15,00,20.00
2009,06,09,15,01,20.00
2009,06,09,15,02,19.90
2009,06,09,15,03,19.90
2009,06,09,15,04,19.90
2009,06,09,15,05,19.90
2009,06,09,15,06,20.00
2009,06,09,15,07,20.10
2009,06,09,15,08,20.20
2009,06,09,15,09,20.20
2009,06,09,15,10,20.10
2009,06,09,15,11,20.10
2009,06,09,15,12,20.20
2009,06,09,15,13,20.30
2009,06,09,15,14,20.30
2009,06,09,15,15,20.30
2009,06,09,15,16,20.30
2009,06,09,15,17,20.30
2009,06,09,15,18,20.30
2009,06,09,15,19,20.30
2009,06,09,15,20,20.20
2009,06,09,15,21,20.30
2009,06,09,15,22,20.30
2009,06,09,15,23,20.30
2009,06,09,15,24,20.40
2009,06,09,15,25,20.40
2009,06,09,15,26,20.40
2009,06,09,15,27,20.40
2009,06,09,15,28,20.40
2009,06,09,15,29,20.30
2009,06,09,15,30,20.30
2009,06,09,15,31,20.20
2009,06,09,15,32,20.20
2009,06,09,15,33,20.20
2009,06,09,15,34,20.20
2009,06,09,15,35,20.20
2009,06,09,15,36,20.20
2009,06,09,15,37,20.30
2009,06,09,15,38,20.50
2009,06,09,15,39,20.60
2009,06,09,15,40,20.70
2009,06,09,15,41,20.70
2009,06,09,15,42,20.80
2009,06,09,15,43,20.80
2009,06,09,15,44,20.80
2009,06,09,15,45,20.90
2009,06,09,15,46,20.90
2009,06,09,15,47,20.90
2009,06,09,15,48,21.00
2009,06,09,15,49,21.10
2009,06,09,15,50,21.20
2009,06,09,15,51,21.20
2009,06,09,15,52,21.20
2009,06,09,15,53,21.20
2009,06,09,15,54,21.20
2009,06,09,15,55,21.20
2009,06,09,15,56,21.20
2009,06,09,15,57,21.20
2009,06,09,15,58,21.30
2009,06,09,15,59,21.30
2009,06,09,16,00,21.30
2009,06,09,16,01,21.30
2009,06,09,16,02,21.30
2009,06,09,16,03,21.30
2009,06,09,16,04,21.30
2009,06,09,16,05,21.20
2009,06,09,16,06,21.20
2009,06,09,16,07,21.20
2009,06,09,16,08,21.20
2009,06,09,16,09,21.20
2009,06,09,16,10,21.20
2009,06,09,16,11,21.20
2009,06,09,16,12,21.30
2009,06,09,16,13,21.40
2009,06,09,16,14,21.50
2009,06,09,16,15,21.60
2009,06,09,16,16,21.60
2009,06,09,16,17,21.50
2009,06,09,16,18,21.40
2009,06,09,16,19,21.50
2009,06,09,16,20,21.60
2009,06,09,16,21,21.50
2009,06,09,16,22,21.60
2009,06,09,16,23,21.60
2009,06,09,16,24,21.60
2009,06,09,16,25,21.60
2009,06,09,16,26,21.60
2009,06,09,16,27,21.50
2009,06,09,16,28,21.40
2009,06,09,16,29,21.40
2009,06,09,16,30,21.40
2009,06,09,16,31,21.50
2009,06,09,16,32,21.50
2009,06,09,16,33,21.60
2009,06,09,16,34,21.70
2009,06,09,16,35,21.80
2009,06,09,16,36,21.80
2009,06,09,16,37,21.80
2009,06,09,16,38,21.80
2009,06,09,16,39,21.80
2009,06,09,16,40,21.90
2009,06,09,16,41,21.90
2009,06,09,16,42,21.90
2009,06,09,16,43,22.00
2009,06,09,16,44,21.90
2009,06,09,16,45,21.80
2009,06,09,16,46,21.80
2009,06,09,16,47,21.70
2009,06,09,16,48,21.70
2009,06,09,16,49,21.60
2009,06,09,16,50,21.60
2009,06,09,16,51,21.60
2009,06,09,16,52,21.60
2009,06,09,16,53,21.70
2009,06,09,16,54,21.70
2009,06,09,16,55,21.70
2009,06,09,16,56,21.60
2009,06,09,16,57,21.50
2009,06,09,16,58,21.40
2009,06,09,16,59,21.40
2009,06,09,17,00,21.50
2009,06,09,17,01,21.60
2009,06,09,17,02,21.50
2009,06,09,17,03,21.40
2009,06,09,17,04,21.30
2009,06,09,17,05,21.20
2009,06,09,17,06,21.20
2009,06,09,17,07,21.10
2009,06,09,17,08,21.10
2009,06,09,17,09,21.10
2009,06,09,17,10,21.10
2009,06,09,17,11,21.00
2009,06,09,17,12,21.00
2009,06,09,17,13,21.00
2009,06,09,17,14,21.00
2009,06,09,17,15,21.00
2009,06,09,17,16,21.10
2009,06,09,17,17,21.10
2009,06,09,17,18,21.10
2009,06,09,17,19,21.10
2009,06,09,17,20,21.10
2009,06,09,17,21,21.10
2009,06,09,17,22,21.10
2009,06,09,17,23,21.20